FHBGH LFLJ-LFLL

Flight info

Callsign FHBGH
Flight time 0h 28m
Altitude 10000
Route VFR
Aircraft C404/M-V/N

Departure

Time 2026-04-23 16:20
Airport Courchevel Altiport (LFLJ)

Arrival

Time 2026-04-23 16:48
Airport Lyon Saint-Exupéry Airport (LFLL)
Time Latitude Longitude Altitude Speed Heading
2026-04-23 16:14 45.39572 6.63347 6605 ft 0 kts 171°
2026-04-23 16:17 45.39570 6.63346 6607 ft 0 kts 194°
2026-04-23 16:18 45.39566 6.63339 6607 ft 1 kts 255°
2026-04-23 16:18 45.39575 6.63285 6615 ft 7 kts 300°
2026-04-23 16:18 45.39595 6.63280 6614 ft 3 kts
2026-04-23 16:18 45.39599 6.63282 6613 ft 1 kts 41°
2026-04-23 16:19 45.39600 6.63284 6613 ft 0 kts 45°
2026-04-23 16:19 45.39714 6.63444 6571 ft 61 kts 47°
2026-04-23 16:19 45.40201 6.64040 6658 ft 89 kts 35°
2026-04-23 16:19 45.40759 6.64329 6960 ft 95 kts
2026-04-23 16:20 45.41481 6.64286 7200 ft 110 kts 349°
2026-04-23 16:20 45.42238 6.64064 7508 ft 117 kts 352°
2026-04-23 16:20 45.43097 6.63913 7739 ft 130 kts 351°
2026-04-23 16:20 45.43965 6.63457 7919 ft 139 kts 323°
2026-04-23 16:21 45.44622 6.62434 8174 ft 137 kts 301°
2026-04-23 16:21 45.44941 6.61219 8602 ft 129 kts 288°
2026-04-23 16:21 45.45200 6.59929 8777 ft 142 kts 284°
2026-04-23 16:21 45.45397 6.58553 9083 ft 142 kts 282°
2026-04-23 16:22 45.45628 6.57163 9327 ft 146 kts 282°
2026-04-23 16:22 45.45844 6.55743 9605 ft 147 kts 282°
2026-04-23 16:22 45.46054 6.54312 9810 ft 149 kts 281°
2026-04-23 16:22 45.46247 6.52851 9982 ft 149 kts 278°
2026-04-23 16:23 45.46412 6.51430 10218 ft 144 kts 279°
2026-04-23 16:23 45.46578 6.50035 10459 ft 141 kts 278°
2026-04-23 16:23 45.46719 6.48660 10628 ft 140 kts 276°
2026-04-23 16:23 45.46848 6.47297 10653 ft 139 kts 277°
2026-04-23 16:24 45.46998 6.45903 10582 ft 145 kts 278°
2026-04-23 16:24 45.47163 6.44500 10630 ft 145 kts 279°
2026-04-23 16:24 45.47335 6.43110 10801 ft 139 kts 277°
2026-04-23 16:24 45.47439 6.41778 10886 ft 134 kts 282°
2026-04-23 16:25 45.47686 6.40472 10913 ft 138 kts 287°
2026-04-23 16:25 45.47986 6.39164 10964 ft 139 kts 289°
2026-04-23 16:25 45.48346 6.37874 10992 ft 141 kts 294°
2026-04-23 16:25 45.48763 6.36575 10875 ft 149 kts 296°
2026-04-23 16:26 45.49207 6.35189 10790 ft 154 kts 296°
2026-04-23 16:26 45.49706 6.33822 10788 ft 162 kts 294°
2026-04-23 16:26 45.50069 6.32261 10658 ft 170 kts 288°
2026-04-23 16:26 45.50458 6.30670 10799 ft 165 kts 290°
2026-04-23 16:27 45.50874 6.29067 10606 ft 185 kts 290°
2026-04-23 16:27 45.51329 6.27311 10581 ft 188 kts 290°
2026-04-23 16:27 45.51774 6.25579 10660 ft 183 kts 290°
2026-04-23 16:27 45.52206 6.23871 10669 ft 183 kts 290°
2026-04-23 16:28 45.52631 6.22184 10670 ft 183 kts 289°
2026-04-23 16:28 45.53055 6.20465 10665 ft 184 kts 289°
2026-04-23 16:28 45.53476 6.18730 10669 ft 186 kts 289°
2026-04-23 16:28 45.53897 6.16973 10677 ft 187 kts 288°
2026-04-23 16:29 45.54316 6.15203 10678 ft 188 kts 288°
2026-04-23 16:29 45.54725 6.13455 10674 ft 189 kts 288°
2026-04-23 16:29 45.55138 6.11668 10687 ft 190 kts 288°
2026-04-23 16:29 45.55550 6.09871 10687 ft 191 kts 288°
2026-04-23 16:30 45.55958 6.08065 10678 ft 190 kts 288°
2026-04-23 16:30 45.56363 6.06268 10675 ft 192 kts 287°
2026-04-23 16:30 45.56767 6.04452 10675 ft 191 kts 287°
2026-04-23 16:30 45.57163 6.02648 10678 ft 190 kts 287°
2026-04-23 16:31 45.57558 6.00834 10684 ft 190 kts 287°
2026-04-23 16:31 45.57942 5.99055 10671 ft 190 kts 286°
2026-04-23 16:31 45.58317 5.97287 10789 ft 182 kts 286°
2026-04-23 16:31 45.58674 5.95575 10892 ft 177 kts 286°
2026-04-23 16:32 45.59012 5.93910 10999 ft 171 kts 285°
2026-04-23 16:32 45.59318 5.92302 11089 ft 163 kts 277°
2026-04-23 16:32 45.59562 5.90772 11179 ft 156 kts 279°
2026-04-23 16:32 45.59768 5.89275 11254 ft 151 kts 277°
2026-04-23 16:33 45.59899 5.87654 10680 ft 182 kts 269°
2026-04-23 16:33 45.59930 5.85713 10106 ft 207 kts 267°
2026-04-23 16:33 45.59917 5.83621 9563 ft 212 kts 264°
2026-04-23 16:33 45.59851 5.81673 9357 ft 201 kts 263°
2026-04-23 16:34 45.59620 5.79565 8380 ft 225 kts 252°
2026-04-23 16:34 45.59096 5.77449 7718 ft 224 kts 239°
2026-04-23 16:34 45.58442 5.75448 7162 ft 220 kts 245°
2026-04-23 16:34 45.57910 5.73398 6643 ft 217 kts 252°
2026-04-23 16:35 45.57605 5.71318 6161 ft 214 kts 258°
2026-04-23 16:35 45.57349 5.69253 5622 ft 214 kts 258°
2026-04-23 16:35 45.57126 5.67626 5278 ft 212 kts 257°
2026-04-23 16:36 45.57032 5.66974 5147 ft 210 kts 257°
2026-04-23 16:36 45.56622 5.64971 4644 ft 212 kts 245°
2026-04-23 16:36 45.55957 5.63215 4566 ft 192 kts 237°
2026-04-23 16:36 45.55247 5.61650 4467 ft 184 kts 240°
2026-04-23 16:37 45.54784 5.59992 4371 ft 177 kts 257°
2026-04-23 16:37 45.54716 5.58276 4151 ft 179 kts 278°
2026-04-23 16:37 45.55014 5.56424 3907 ft 206 kts 283°
2026-04-23 16:37 45.55295 5.54373 3744 ft 213 kts 280°
2026-04-23 16:38 45.55554 5.52344 3669 ft 202 kts 279°
2026-04-23 16:38 45.55733 5.50359 3546 ft 198 kts 276°
2026-04-23 16:38 45.55881 5.48334 3517 ft 208 kts 275°
2026-04-23 16:38 45.56025 5.46324 3647 ft 205 kts 274°
2026-04-23 16:39 45.56157 5.44302 3882 ft 201 kts 272°
2026-04-23 16:39 45.56201 5.42304 4054 ft 204 kts 269°
2026-04-23 16:39 45.56188 5.40276 4196 ft 204 kts 266°
2026-04-23 16:39 45.56088 5.38315 4639 ft 192 kts 265°
2026-04-23 16:40 45.56149 5.36377 4711 ft 205 kts 275°
2026-04-23 16:40 45.56429 5.34314 4268 ft 222 kts 287°
2026-04-23 16:40 45.57059 5.32322 3832 ft 214 kts 294°
2026-04-23 16:40 45.57647 5.30462 3786 ft 202 kts 291°
2026-04-23 16:41 45.58164 5.28664 3921 ft 190 kts 290°
2026-04-23 16:41 45.58613 5.26884 3931 ft 190 kts 287°
2026-04-23 16:41 45.59011 5.25088 3781 ft 198 kts 284°
2026-04-23 16:41 45.59357 5.23200 3708 ft 189 kts 282°
2026-04-23 16:42 45.59602 5.21425 3744 ft 176 kts 278°
2026-04-23 16:42 45.59806 5.19722 3446 ft 161 kts 278°
2026-04-23 16:42 45.60010 5.18284 3245 ft 131 kts 282°
2026-04-23 16:42 45.60212 5.17130 3026 ft 115 kts 284°
2026-04-23 16:43 45.60528 5.16100 2806 ft 111 kts 305°
2026-04-23 16:43 45.61102 5.15381 2579 ft 111 kts 325°
2026-04-23 16:43 45.61771 5.14787 2319 ft 111 kts 327°
2026-04-23 16:43 45.62386 5.14233 2207 ft 101 kts 327°
2026-04-23 16:44 45.62981 5.13719 2125 ft 99 kts 327°
2026-04-23 16:44 45.63568 5.13185 2016 ft 100 kts 325°
2026-04-23 16:44 45.64148 5.12637 1975 ft 99 kts 327°
2026-04-23 16:44 45.64712 5.12127 1915 ft 96 kts 325°
2026-04-23 16:45 45.65257 5.11590 1908 ft 94 kts 323°
2026-04-23 16:45 45.65775 5.11032 1882 ft 94 kts 321°
2026-04-23 16:45 45.66120 5.10623 1784 ft 101 kts 316°
2026-04-23 16:45 45.66730 5.10085 1674 ft 104 kts 340°
2026-04-23 16:46 45.67438 5.09932 1538 ft 102 kts 355°
2026-04-23 16:46 45.68341 5.09855 1461 ft 96 kts 350°
2026-04-23 16:46 45.68786 5.09774 1369 ft 93 kts 351°
2026-04-23 16:46 45.69419 5.09693 1258 ft 89 kts 354°
2026-04-23 16:47 45.70030 5.09614 1148 ft 89 kts 351°
2026-04-23 16:47 45.70633 5.09538 1010 ft 84 kts 354°
2026-04-23 16:47 45.71215 5.09462 875 ft 83 kts 352°
2026-04-23 16:47 45.71742 5.09396 818 ft 64 kts 354°
2026-04-23 16:48 45.72097 5.09354 812 ft 39 kts 354°
2026-04-23 16:48 45.72371 5.09312 809 ft 42 kts 352°
2026-04-23 16:48 45.72615 5.09143 798 ft 39 kts 326°
2026-04-23 16:48 45.72860 5.09044 790 ft 36 kts 349°
2026-04-23 16:49 45.72965 5.08949 788 ft 17 kts 264°
2026-04-23 16:49 45.72954 5.08699 788 ft 25 kts 265°
2026-04-23 16:49 45.72942 5.08512 786 ft 17 kts 268°
2026-04-23 16:49 45.72924 5.08324 785 ft 23 kts 262°
2026-04-23 16:50 45.72923 5.08234 784 ft 4 kts 327°
2026-04-23 16:50 45.72941 5.08234 784 ft 0 kts 358°